Time,TemperatureF,DewpointF,PressureIn,WindDirection,WindDirectionDegrees,WindSpeedMPH,WindSpeedGustMPH,Humidity,HourlyPrecipIn,Conditions,Clouds,dailyrainin,SoftwareType,DateUTC
2013-04-17 00:03:00,59.0,53.0,30.24,NE,47,0.0,1.0,80,0.00,,,0.00,,2013-04-17 04:03:00,
2013-04-17 00:13:00,59.0,53.0,30.24,NE,47,0.0,1.0,80,0.00,,,0.00,,2013-04-17 04:13:00,
2013-04-17 00:22:00,59.0,53.0,30.24,NE,47,0.0,1.0,80,0.00,,,0.00,,2013-04-17 04:22:00,
2013-04-17 00:33:00,59.0,53.0,30.24,NE,47,0.0,0.0,81,0.00,,,0.00,,2013-04-17 04:33:00,
2013-04-17 00:42:00,59.0,53.0,30.24,NE,47,0.0,0.0,81,0.00,,,0.00,,2013-04-17 04:42:00,
2013-04-17 00:52:00,59.0,53.0,30.24,NE,47,0.0,1.0,81,0.00,,,0.00,,2013-04-17 04:52:00,
2013-04-17 01:03:00,58.0,52.0,30.23,NE,45,0.0,3.0,81,0.00,,,0.00,,2013-04-17 05:03:00,
2013-04-17 01:12:00,58.0,52.0,30.23,NE,45,0.0,3.0,81,0.00,,,0.00,,2013-04-17 05:12:00,
2013-04-17 01:22:00,58.0,53.0,30.23,NE,45,0.0,3.0,82,0.00,,,0.00,,2013-04-17 05:22:00,
2013-04-17 01:32:00,57.0,52.0,30.24,NE,45,0.0,2.0,83,0.00,,,0.00,,2013-04-17 05:32:00,
2013-04-17 01:42:00,57.0,52.0,30.24,NE,45,0.0,2.0,83,0.00,,,0.00,,2013-04-17 05:42:00,
2013-04-17 01:52:00,57.0,52.0,30.23,NE,45,0.0,2.0,84,0.00,,,0.00,,2013-04-17 05:52:00,
2013-04-17 02:02:00,58.0,53.0,30.23,NE,45,0.0,3.0,83,0.00,,,0.00,,2013-04-17 06:02:00,
2013-04-17 02:12:00,58.0,53.0,30.23,NE,45,0.0,3.0,83,0.00,,,0.00,,2013-04-17 06:12:00,
2013-04-17 02:22:00,58.0,53.0,30.22,NE,45,0.0,1.0,84,0.00,,,0.00,,2013-04-17 06:22:00,
2013-04-17 02:32:00,58.0,53.0,30.22,NE,45,0.0,0.0,84,0.00,,,0.00,,2013-04-17 06:32:00,
2013-04-17 02:42:00,58.0,53.0,30.22,NE,45,0.0,0.0,84,0.00,,,0.00,,2013-04-17 06:42:00,
2013-04-17 02:52:00,57.0,52.0,30.22,NE,45,0.0,1.0,84,0.00,,,0.00,,2013-04-17 06:52:00,
2013-04-17 03:02:00,58.0,53.0,30.22,NE,45,0.0,3.0,84,0.00,,,0.00,,2013-04-17 07:02:00,
2013-04-17 03:12:00,58.0,53.0,30.22,NE,45,0.0,3.0,84,0.00,,,0.00,,2013-04-17 07:12:00,
2013-04-17 03:22:00,58.0,54.0,30.22,NE,45,0.0,0.0,85,0.00,,,0.00,,2013-04-17 07:22:00,
2013-04-17 03:32:00,58.0,54.0,30.23,NE,45,0.0,1.0,85,0.00,,,0.00,,2013-04-17 07:32:00,
2013-04-17 03:42:00,58.0,54.0,30.23,NE,45,0.0,1.0,85,0.00,,,0.00,,2013-04-17 07:42:00,
2013-04-17 03:52:00,58.0,54.0,30.23,NE,45,0.0,1.0,85,0.00,,,0.00,,2013-04-17 07:52:00,
2013-04-17 04:02:00,59.0,54.0,30.23,NE,45,0.0,1.0,85,0.00,,,0.00,,2013-04-17 08:02:00,
2013-04-17 04:12:00,59.0,54.0,30.23,NE,45,0.0,1.0,85,0.00,,,0.00,,2013-04-17 08:12:00,
2013-04-17 04:22:00,59.0,54.0,30.23,NE,45,0.0,1.0,84,0.00,,,0.00,,2013-04-17 08:22:00,
2013-04-17 04:32:00,58.0,53.0,30.22,NE,45,0.0,0.0,84,0.00,,,0.00,,2013-04-17 08:32:00,
2013-04-17 04:42:00,58.0,53.0,30.22,NE,45,0.0,0.0,84,0.00,,,0.00,,2013-04-17 08:42:00,
2013-04-17 04:52:00,58.0,53.0,30.22,NE,45,0.0,1.0,84,0.00,,,0.00,,2013-04-17 08:52:00,
2013-04-17 05:02:00,57.0,52.0,30.22,NE,45,0.0,0.0,84,0.00,,,0.00,,2013-04-17 09:02:00,
2013-04-17 05:12:00,57.0,52.0,30.22,NE,45,0.0,0.0,84,0.00,,,0.00,,2013-04-17 09:12:00,
2013-04-17 05:22:00,57.0,53.0,30.22,NE,45,0.0,1.0,85,0.00,,,0.00,,2013-04-17 09:22:00,
2013-04-17 05:33:00,56.0,52.0,30.22,ENE,78,0.0,2.0,87,0.00,,,0.00,,2013-04-17 09:33:00,
2013-04-17 05:42:00,56.0,52.0,30.22,ENE,78,0.0,2.0,87,0.00,,,0.00,,2013-04-17 09:42:00,
2013-04-17 05:52:00,56.0,52.0,30.22,ENE,78,0.0,0.0,87,0.00,,,0.00,,2013-04-17 09:52:00,
2013-04-17 06:03:00,55.0,51.0,30.23,ENE,78,0.0,1.0,87,0.00,,,0.00,,2013-04-17 10:03:00,
2013-04-17 06:12:00,55.0,51.0,30.23,ENE,78,0.0,1.0,87,0.00,,,0.00,,2013-04-17 10:12:00,
2013-04-17 06:23:00,55.0,52.0,30.23,ENE,77,1.0,3.0,88,0.00,,,0.00,,2013-04-17 10:23:00,
2013-04-17 06:32:00,57.0,53.0,30.23,NE,52,1.0,3.0,87,0.00,,,0.00,,2013-04-17 10:32:00,
2013-04-17 06:42:00,57.0,53.0,30.23,NE,52,1.0,3.0,87,0.00,,,0.00,,2013-04-17 10:42:00,
2013-04-17 06:52:00,58.0,54.0,30.24,NE,52,3.0,3.0,86,0.00,,,0.00,,2013-04-17 10:52:00,
2013-04-17 07:02:00,58.0,54.0,30.25,NE,52,0.0,1.0,87,0.00,,,0.00,,2013-04-17 11:02:00,
2013-04-17 07:12:00,58.0,54.0,30.25,NE,52,0.0,1.0,87,0.00,,,0.00,,2013-04-17 11:12:00,
2013-04-17 07:22:00,58.0,54.0,30.25,NE,52,0.0,1.0,88,0.01,,,0.01,,2013-04-17 11:22:00,
2013-04-17 07:32:00,58.0,55.0,30.25,NE,56,0.0,4.0,90,0.01,,,0.01,,2013-04-17 11:32:00,
2013-04-17 07:42:00,58.0,55.0,30.25,NE,56,0.0,4.0,90,0.01,,,0.01,,2013-04-17 11:42:00,
2013-04-17 07:52:00,58.0,55.0,30.26,NE,56,0.0,2.0,90,0.02,,,0.02,,2013-04-17 11:52:00,
2013-04-17 08:03:00,58.0,56.0,30.27,ESE,104,0.0,2.0,92,0.14,,,0.14,,2013-04-17 12:03:00,
2013-04-17 08:12:00,58.0,56.0,30.27,ESE,104,0.0,2.0,92,0.14,,,0.14,,2013-04-17 12:12:00,
2013-04-17 08:22:00,58.0,56.0,30.26,ESE,104,0.0,1.0,92,0.14,,,0.15,,2013-04-17 12:22:00,
2013-04-17 08:32:00,58.0,56.0,30.25,ESE,104,0.0,2.0,94,0.15,,,0.16,,2013-04-17 12:32:00,
2013-04-17 08:42:00,58.0,56.0,30.25,ESE,104,0.0,2.0,94,0.15,,,0.16,,2013-04-17 12:42:00,
2013-04-17 08:52:00,58.0,56.0,30.26,ESE,104,0.0,1.0,94,0.14,,,0.16,,2013-04-17 12:52:00,
2013-04-17 09:02:00,59.0,57.0,30.25,ESE,104,0.0,1.0,94,0.02,,,0.16,,2013-04-17 13:02:00,
2013-04-17 09:12:00,59.0,57.0,30.25,ESE,104,0.0,1.0,94,0.02,,,0.16,,2013-04-17 13:12:00,
2013-04-17 09:22:00,59.0,57.0,30.25,ESE,104,0.0,1.0,94,0.01,,,0.16,,2013-04-17 13:22:00,
2013-04-17 09:32:00,60.0,59.0,30.25,ESE,104,0.0,1.0,95,0.00,,,0.16,,2013-04-17 13:32:00,
2013-04-17 09:42:00,60.0,59.0,30.25,ESE,104,0.0,1.0,95,0.00,,,0.16,,2013-04-17 13:42:00,
2013-04-17 09:52:00,60.0,59.0,30.25,ESE,104,0.0,1.0,96,0.00,,,0.16,,2013-04-17 13:52:00,
2013-04-17 10:02:00,62.0,61.0,30.24,SSE,163,1.0,2.0,96,0.00,,,0.16,,2013-04-17 14:02:00,
2013-04-17 10:12:00,62.0,61.0,30.24,SSE,163,1.0,2.0,96,0.00,,,0.16,,2013-04-17 14:12:00,
2013-04-17 10:22:00,63.0,62.0,30.24,SSE,163,0.0,1.0,95,0.00,,,0.16,,2013-04-17 14:22:00,
2013-04-17 10:32:00,64.0,60.0,30.24,SSW,198,0.0,1.0,87,0.00,,,0.16,,2013-04-17 14:32:00,
2013-04-17 10:42:00,64.0,60.0,30.24,SSW,198,0.0,1.0,87,0.00,,,0.16,,2013-04-17 14:42:00,
2013-04-17 10:52:00,64.0,60.0,30.24,SSW,198,0.0,1.0,87,0.00,,,0.16,,2013-04-17 14:52:00,
2013-04-17 11:02:00,64.0,60.0,30.24,SSW,198,0.0,1.0,87,0.00,,,0.16,,2013-04-17 15:02:00,
2013-04-17 11:12:00,64.0,60.0,30.24,SSW,198,0.0,1.0,87,0.00,,,0.16,,2013-04-17 15:12:00,
2013-04-17 17:03:00,67.0,58.0,30.18,NW,321,1.0,6.0,74,0.00,,,0.27,,2013-04-17 21:03:00,
2013-04-17 17:13:00,67.0,58.0,30.18,NW,321,1.0,6.0,74,0.00,,,0.27,,2013-04-17 21:13:00,
2013-04-17 17:22:00,68.0,58.0,30.17,NW,305,1.0,5.0,70,0.00,,,0.27,,2013-04-17 21:22:00,
2013-04-17 17:33:00,68.0,59.0,30.17,NW,316,0.0,2.0,74,0.00,,,0.27,,2013-04-17 21:33:00,
2013-04-17 17:42:00,68.0,59.0,30.17,WSW,243,0.0,4.0,74,0.00,,,0.27,,2013-04-17 21:42:00,
2013-04-17 17:53:00,68.0,59.0,30.17,WSW,243,0.0,4.0,74,0.00,,,0.27,,2013-04-17 21:53:00,
2013-04-17 18:02:00,68.0,59.0,30.18,WSW,243,0.0,2.0,74,0.00,,,0.27,,2013-04-17 22:02:00,
2013-04-17 18:12:00,68.0,59.0,30.18,WSW,243,0.0,2.0,74,0.00,,,0.27,,2013-04-17 22:12:00,
2013-04-17 18:22:00,68.0,59.0,30.17,WSW,243,1.0,2.0,73,0.00,,,0.27,,2013-04-17 22:22:00,
2013-04-17 18:33:00,68.0,60.0,30.16,WSW,243,0.0,2.0,75,0.00,,,0.27,,2013-04-17 22:33:00,
2013-04-17 18:42:00,68.0,60.0,30.16,WSW,243,0.0,1.0,75,0.00,,,0.27,,2013-04-17 22:42:00,
2013-04-17 18:53:00,68.0,60.0,30.16,WSW,243,0.0,1.0,75,0.00,,,0.27,,2013-04-17 22:53:00,
2013-04-17 19:02:00,67.0,60.0,30.16,WSW,243,0.0,1.0,77,0.00,,,0.27,,2013-04-17 23:02:00,
2013-04-17 19:12:00,67.0,60.0,30.16,WSW,243,0.0,0.0,77,0.00,,,0.27,,2013-04-17 23:12:00,
2013-04-17 19:22:00,67.0,60.0,30.16,WSW,243,0.0,0.0,77,0.00,,,0.27,,2013-04-17 23:22:00,
2013-04-17 19:32:00,66.0,60.0,30.16,WSW,243,0.0,0.0,82,0.00,,,0.27,,2013-04-17 23:32:00,
2013-04-17 19:42:00,65.0,60.0,30.16,WSW,243,0.0,0.0,83,0.00,,,0.27,,2013-04-17 23:42:00,
2013-04-17 19:52:00,65.0,60.0,30.16,WSW,243,0.0,0.0,83,0.00,,,0.27,,2013-04-17 23:52:00,
2013-04-17 20:02:00,64.0,58.0,30.16,WSW,243,0.0,0.0,82,0.00,,,0.27,,2013-04-18 00:02:00,
2013-04-17 20:12:00,63.0,58.0,30.17,WSW,243,0.0,0.0,84,0.00,,,0.27,,2013-04-18 00:12:00,
2013-04-17 20:22:00,63.0,58.0,30.17,WSW,243,0.0,0.0,84,0.00,,,0.27,,2013-04-18 00:22:00,
2013-04-17 20:32:00,62.0,57.0,30.17,WSW,243,0.0,0.0,84,0.00,,,0.27,,2013-04-18 00:32:00,
2013-04-17 20:42:00,62.0,57.0,30.17,WSW,243,0.0,1.0,84,0.00,,,0.27,,2013-04-18 00:42:00,
2013-04-17 20:52:00,62.0,57.0,30.17,WSW,243,0.0,1.0,84,0.00,,,0.27,,2013-04-18 00:52:00,
2013-04-17 21:02:00,61.0,57.0,30.18,WSW,243,0.0,1.0,86,0.00,,,0.27,,2013-04-18 01:02:00,
2013-04-17 21:12:00,61.0,57.0,30.18,WSW,243,0.0,1.0,87,0.00,,,0.27,,2013-04-18 01:12:00,
2013-04-17 21:22:00,61.0,57.0,30.18,WSW,243,0.0,1.0,87,0.00,,,0.27,,2013-04-18 01:22:00,
2013-04-17 21:32:00,60.0,56.0,30.18,WSW,243,0.0,2.0,86,0.00,,,0.27,,2013-04-18 01:32:00,
2013-04-17 21:42:00,60.0,56.0,30.18,WSW,243,0.0,2.0,87,0.00,,,0.27,,2013-04-18 01:42:00,
2013-04-17 21:52:00,60.0,56.0,30.18,WSW,243,0.0,2.0,87,0.00,,,0.27,,2013-04-18 01:52:00,
2013-04-17 22:02:00,59.0,55.0,30.19,WSW,243,0.0,3.0,87,0.00,,,0.27,,2013-04-18 02:02:00,
2013-04-17 22:12:00,59.0,55.0,30.19,WSW,243,0.0,2.0,88,0.00,,,0.27,,2013-04-18 02:12:00,
2013-04-17 22:22:00,59.0,55.0,30.19,WSW,243,0.0,2.0,88,0.00,,,0.27,,2013-04-18 02:22:00,
2013-04-17 22:32:00,59.0,55.0,30.18,WSW,243,0.0,2.0,88,0.00,,,0.27,,2013-04-18 02:32:00,
2013-04-17 22:42:00,59.0,55.0,30.18,WSW,243,0.0,2.0,88,0.00,,,0.27,,2013-04-18 02:42:00,
2013-04-17 22:52:00,59.0,55.0,30.18,WSW,243,0.0,2.0,88,0.00,,,0.27,,2013-04-18 02:52:00,
2013-04-17 23:02:00,58.0,54.0,30.16,NNE,23,0.0,2.0,88,0.00,,,0.27,,2013-04-18 03:02:00,
2013-04-17 23:12:00,58.0,54.0,30.16,NNE,23,1.0,2.0,88,0.00,,,0.27,,2013-04-18 03:12:00,
2013-04-17 23:22:00,58.0,54.0,30.16,NNE,23,1.0,2.0,88,0.00,,,0.27,,2013-04-18 03:22:00,
2013-04-17 23:33:00,58.0,55.0,30.16,NNE,23,0.0,1.0,89,0.00,,,0.27,,2013-04-18 03:33:00,
2013-04-17 23:43:00,58.0,55.0,30.15,NNE,23,0.0,1.0,89,0.00,,,0.27,,2013-04-18 03:43:00,
2013-04-17 23:53:00,58.0,55.0,30.15,NNE,23,0.0,1.0,89,0.00,,,0.27,,2013-04-18 03:53:00,